Location: Mainz-Finthen
(49.9906°N, 8.1713°E)
Time: 08:11:26
(UTC+00:00)

N. Korean satellite - Pass Details

Date: 30 November 2022
Orbit: 407 x 442 km, 97.3° (Epoch: 04 February)

Event Time Altitude Azimuth Distance (km) Brightness Sun altitude
Rises 16:38:04 0° 198° (SSW) 2,435 10.7 -10.7°
Reaches altitude 10° 16:40:24 10° 214° (SW) 1,582 10.1 -11.0°
Maximum altitude 16:43:05 22° 267° (W) 1,062 9.3 -11.4°
Drops below altitude 10° 16:45:50 10° 319° (NW) 1,619 9.5 -11.8°
Sets 16:48:15 0° 335° (NNW) 2,510 10.3 -12.2°
